TimePST,TemperatureF,Dew PointF,Humidity,Sea Level PressureIn,VisibilityMPH,Wind Direction,Wind SpeedMPH,Gust SpeedMPH,PrecipitationIn,Events,Conditions,WindDirDegrees,DateUTC
12:15 AM,44.6,37.4,76,30.18,6.0,South,6.9,-,N/A,,Haze,190,2013-12-17 08:15:00
12:35 AM,44.6,37.4,76,30.17,5.0,South,8.1,-,N/A,,Haze,190,2013-12-17 08:35:00
12:55 AM,42.8,37.4,81,30.17,5.0,South,9.2,-,N/A,,Haze,190,2013-12-17 08:55:00
1:15 AM,42.8,37.4,81,30.18,5.0,South,6.9,-,N/A,,Haze,180,2013-12-17 09:15:00
1:35 AM,44.6,37.4,76,30.18,5.0,South,6.9,-,N/A,,Haze,190,2013-12-17 09:35:00
1:55 AM,42.8,37.4,81,30.18,6.0,South,8.1,-,N/A,,Haze,190,2013-12-17 09:55:00
2:15 AM,41.0,37.4,87,30.19,5.0,SSW,5.8,-,N/A,,Mist,200,2013-12-17 10:15:00
2:35 AM,41.0,37.4,87,30.19,5.0,SSW,3.5,-,N/A,,Clear,210,2013-12-17 10:35:00
2:55 AM,41.0,37.4,87,30.19,5.0,South,4.6,-,N/A,,Clear,190,2013-12-17 10:55:00
3:15 AM,41.0,37.4,87,30.19,5.0,South,6.9,-,N/A,,Clear,180,2013-12-17 11:15:00
3:35 AM,41.0,37.4,87,30.18,5.0,SSE,6.9,-,N/A,,Clear,160,2013-12-17 11:35:00
3:55 AM,42.8,37.4,81,30.18,5.0,South,6.9,-,N/A,,Haze,190,2013-12-17 11:55:00
4:15 AM,41.0,37.4,87,30.17,5.0,South,8.1,-,N/A,,Clear,190,2013-12-17 12:15:00
4:35 AM,41.0,37.4,87,30.17,4.0,South,6.9,-,N/A,,Clear,190,2013-12-17 12:35:00
4:55 AM,41.0,37.4,87,30.17,4.0,South,8.1,-,N/A,,Clear,190,2013-12-17 12:55:00
5:15 AM,41.0,37.4,87,30.17,4.0,SSW,6.9,-,N/A,,Clear,200,2013-12-17 13:15:00
5:35 AM,41.0,37.4,87,30.17,3.0,South,9.2,-,N/A,,Clear,190,2013-12-17 13:35:00
5:55 AM,41.0,37.4,87,30.17,3.0,SSW,8.1,-,N/A,,Clear,200,2013-12-17 13:55:00
6:15 AM,41.0,39.2,93,30.17,3.0,South,9.2,-,N/A,,Clear,190,2013-12-17 14:15:00
6:35 AM,48.2,39.2,71,30.17,4.0,SW,10.4,-,N/A,,Haze,220,2013-12-17 14:35:00
6:55 AM,48.2,39.2,71,30.18,4.0,SW,10.4,-,N/A,,Haze,220,2013-12-17 14:55:00
7:15 AM,46.4,39.2,76,30.18,4.0,SSW,8.1,-,N/A,,Haze,210,2013-12-17 15:15:00
7:35 AM,46.4,39.2,76,30.18,3.0,SW,10.4,-,N/A,,Haze,220,2013-12-17 15:35:00
7:55 AM,48.2,39.2,71,30.19,3.0,SW,8.1,-,N/A,,Haze,220,2013-12-17 15:55:00
8:15 AM,48.2,39.2,71,30.19,3.0,SSW,9.2,-,N/A,,Haze,210,2013-12-17 16:15:00
8:35 AM,50.0,39.2,66,30.19,3.0,SW,10.4,-,N/A,,Haze,220,2013-12-17 16:35:00
8:55 AM,50.0,39.2,66,30.19,3.0,SSW,10.4,-,N/A,,Haze,210,2013-12-17 16:55:00
9:15 AM,50.0,39.2,66,30.20,3.0,SSW,10.4,-,N/A,,Haze,210,2013-12-17 17:15:00
9:35 AM,50.0,41.0,71,30.20,3.0,SSW,10.4,-,N/A,,Haze,210,2013-12-17 17:35:00
9:55 AM,51.8,39.2,62,30.20,4.0,SSW,9.2,-,N/A,,Haze,210,2013-12-17 17:55:00
10:15 AM,53.6,39.2,58,30.20,4.0,SSW,8.1,-,N/A,,Haze,200,2013-12-17 18:15:00
10:35 AM,55.4,39.2,54,30.19,5.0,SSW,8.1,-,N/A,,Haze,210,2013-12-17 18:35:00
10:55 AM,55.4,39.2,54,30.19,5.0,SW,9.2,-,N/A,,Haze,220,2013-12-17 18:55:00
11:15 AM,57.2,39.2,51,30.18,5.0,SW,6.9,-,N/A,,Haze,220,2013-12-17 19:15:00
11:35 AM,57.2,39.2,51,30.17,5.0,SSE,4.6,-,N/A,,Haze,160,2013-12-17 19:35:00
11:55 AM,57.2,39.2,51,30.15,6.0,South,6.9,-,N/A,,Haze,180,2013-12-17 19:55:00
12:15 PM,59.0,39.2,48,30.14,8.0,SSW,6.9,-,N/A,,Clear,200,2013-12-17 20:15:00
12:35 PM,59.0,39.2,48,30.13,7.0,SSW,6.9,-,N/A,,Clear,210,2013-12-17 20:35:00
12:55 PM,60.8,39.2,45,30.12,8.0,South,4.6,-,N/A,,Clear,170,2013-12-17 20:55:00
1:15 PM,62.6,39.2,42,30.11,8.0,South,5.8,-,N/A,,Clear,180,2013-12-17 21:15:00
1:35 PM,62.6,39.2,42,30.10,8.0,South,6.9,-,N/A,,Clear,190,2013-12-17 21:35:00
1:55 PM,62.6,39.2,42,30.10,8.0,SSW,8.1,-,N/A,,Clear,200,2013-12-17 21:55:00
2:15 PM,60.8,39.2,45,30.09,7.0,South,9.2,-,N/A,,Clear,190,2013-12-17 22:15:00
2:35 PM,62.6,39.2,42,30.09,7.0,South,6.9,-,N/A,,Clear,170,2013-12-17 22:35:00
2:55 PM,62.6,39.2,42,30.09,8.0,South,10.4,-,N/A,,Clear,190,2013-12-17 22:55:00
3:15 PM,59.0,41.0,51,30.09,7.0,South,10.4,-,N/A,,Clear,180,2013-12-17 23:15:00
3:35 PM,59.0,41.0,51,30.09,7.0,SSW,6.9,-,N/A,,Clear,200,2013-12-17 23:35:00
3:55 PM,59.0,41.0,51,30.08,7.0,SSW,8.1,-,N/A,,Clear,200,2013-12-17 23:55:00
4:15 PM,59.0,39.2,48,30.08,6.0,South,8.1,-,N/A,,Haze,190,2013-12-18 00:15:00
4:35 PM,57.2,41.0,55,30.08,7.0,SSW,5.8,-,N/A,,Clear,210,2013-12-18 00:35:00
4:55 PM,57.2,39.2,51,30.07,6.0,SW,6.9,-,N/A,,Haze,220,2013-12-18 00:55:00
5:15 PM,55.4,41.0,58,30.07,7.0,SSW,6.9,-,N/A,,Clear,210,2013-12-18 01:15:00
5:35 PM,51.8,41.0,67,30.07,8.0,SSW,6.9,-,N/A,,Clear,210,2013-12-18 01:35:00
5:55 PM,50.0,39.2,66,30.07,8.0,SSW,6.9,-,N/A,,Clear,210,2013-12-18 01:55:00
6:15 PM,50.0,39.2,66,30.07,8.0,SSW,6.9,-,N/A,,Clear,200,2013-12-18 02:15:00
6:35 PM,48.2,39.2,71,30.08,8.0,South,6.9,-,N/A,,Clear,190,2013-12-18 02:35:00
6:55 PM,46.4,39.2,76,30.07,8.0,SSW,5.8,-,N/A,,Clear,200,2013-12-18 02:55:00
7:15 PM,48.2,41.0,76,30.08,8.0,Calm,Calm,-,N/A,,Clear,0,2013-12-18 03:15:00
7:35 PM,42.8,39.2,87,30.07,5.0,Calm,Calm,-,N/A,,Clear,0,2013-12-18 03:35:00
7:55 PM,42.8,39.2,87,30.07,6.0,Calm,Calm,-,N/A,,Clear,0,2013-12-18 03:55:00
8:15 PM,44.6,39.2,81,30.07,7.0,Calm,Calm,-,N/A,,Clear,0,2013-12-18 04:15:00
8:35 PM,42.8,39.2,87,30.07,7.0,Calm,Calm,-,N/A,,Clear,0,2013-12-18 04:35:00
8:55 PM,37.4,37.4,100,30.08,7.0,Calm,Calm,-,N/A,,Clear,0,2013-12-18 04:55:00
9:15 PM,39.2,37.4,93,30.08,7.0,Calm,Calm,-,N/A,,Clear,0,2013-12-18 05:15:00
9:35 PM,39.2,37.4,93,30.07,8.0,SSW,3.5,-,N/A,,Clear,200,2013-12-18 05:35:00
9:55 PM,41.0,39.2,93,30.07,7.0,SSW,4.6,-,N/A,,Clear,210,2013-12-18 05:55:00
10:15 PM,39.2,39.2,100,30.06,8.0,SW,3.5,-,N/A,,Clear,220,2013-12-18 06:15:00
10:35 PM,35.6,35.6,100,30.06,7.0,Calm,Calm,-,N/A,,Clear,0,2013-12-18 06:35:00
10:55 PM,35.6,35.6,100,30.06,7.0,NNE,3.5,-,N/A,,Clear,20,2013-12-18 06:55:00
11:15 PM,37.4,37.4,100,30.06,8.0,Calm,Calm,-,N/A,,Clear,0,2013-12-18 07:15:00
11:35 PM,39.2,37.4,93,30.06,8.0,Calm,Calm,-,N/A,,Clear,0,2013-12-18 07:35:00
11:55 PM,37.4,37.4,100,30.06,7.0,Calm,Calm,-,N/A,,Clear,0,2013-12-18 07:55:00